sat.trackr.live / text

‹ back to catalog

STARLINK-3318

NORAD 50837 · 2022-001AL

PAYLOAD ACTIVE UNKNOWN

§ Identity

Operator
Country
US
Launch date
2022-01-06
Launch site
AFETR
Launch vehicle
Mass (kg)
RCS (m²)

Purposes: comms

External: N2YO · Heavens-Above · Gunter

§ Orbital elements

Epoch: 2026-09-19T23:38:29.590080Z

Period
93.85 min
Inclination
53.1620°
Eccentricity
0.0001333
Mean motion
15.34388559 rev/d
Perigee alt
461.8 km
Apogee alt
463.6 km
Semi-major
6,840.9 km
B*
6.0034e-5
RAAN
4.0079°
Arg perigee
85.0695°
Mean anomaly
275.0459°
Rev number
25,991

§ Raw data

STARLINK-33181 50837U 22001AL  26262.98506470  .00001652  00000+0  60034-4 0  99952 50837  53.1620   4.0079 0001333  85.0695 275.0459 15.34388559259914

JSON: /api/v1/satellites/50837 · /tle

For live sub-satellite position, see the globe view (requires WebGL).

§ Visibility from observer

Set your observer location to see the next 7 days of passes ≥ 10°. The values pass through the URL so the page stays shareable.

No JS? Fill the form by hand. The geolocation button needs JavaScript.